QPF
0.00 0.00 0.00 0.00 0.00 0.00 0.00 0.00 0.00 0.00 0.00 0.00 0.00 0.00 0.00 0.00 0.00 0.00 0.00 0.00 0.00 0.00 0.00 0.00 0.00 0.00 0.00 0.00 0.00 0.01 0.00 0.01 0.00 0.01 0.02 0.02 0.01 0.01 0.01 0.00 0.00 0.00 0.02
0.00 0.00 0.00 0.00 0.00 0.00 0.00 0.00 0.00 0.00 0.00 0.00 0.00 0.00 0.00 0.00 0.00 0.00 0.00 0.00 0.00 0.00 0.00 0.00 0.00 0.00 0.02 0.00 0.01 0.00 0.00 0.00 0.00 0.01 0.04 0.03 0.01 0.00 0.01 0.00 0.00 0.01 0.03
0.00 0.00 0.00 0.00 0.00 0.00 0.00 0.00 0.00 0.00 0.00 0.00 0.00 0.00 0.00 0.00 0.00 0.00 0.01 0.00 0.00 0.00 0.00 0.00 0.00 0.01 0.04 0.01 0.00 0.00 0.00 0.00 0.00 0.00 0.03 0.01 0.00 0.02 0.02 0.01 0.02 0.02 0.01
0.00 0.00 0.00 0.00 0.00 0.00 0.00 0.00 0.00 0.00 0.00 0.00 0.00 0.00 0.00 0.00 0.00 0.03 0.04 0.00 0.00 0.00 0.00 0.00 0.00 0.01 0.03 0.00 0.00 0.00 0.00 0.00 0.00 0.00 0.00 0.00 0.00 0.04 0.02 0.01 0.01 0.01 0.01
0.00 0.00 0.00 0.00 0.00 0.00 0.00 0.00 0.00 0.00 0.00 0.00 0.00 0.00 0.00 0.00 0.00 0.01 0.01 0.00 0.00 0.00 0.01 0.01 0.00 0.00 0.01 0.00 0.00 0.00 0.00 0.00 0.00 0.00 0.00 0.00 0.00 0.03 0.01 0.01 0.00 0.00 0.00
0.00 0.00 0.00 0.00 0.00 0.00 0.00 0.00 0.00 0.00 0.00 0.00 0.00 0.00 0.00 0.00 0.00 0.00 0.00 0.00 0.01 0.01 0.01 0.02 0.01 0.00 0.00 0.00 0.00 0.00 0.00 0.00 0.00 0.00 0.00 0.00 0.00 0.00 0.00 0.00 0.00 0.00 0.00
0.00 0.00 0.00 0.00 0.00 0.00 0.00 0.00 0.01 0.00 0.00 0.00 0.00 0.00 0.00 0.00 0.00 0.00 0.00 0.00 0.00 0.01 0.01 0.01 0.01 0.01 0.00 0.00 0.00 0.00 0.00 0.00 0.00 0.00 0.00 0.00 0.00 0.00 0.00 0.00 0.00 0.00 0.00
0.00 0.00 0.00 0.00 0.00 0.00 0.00 0.00 0.06 0.10 0.04 0.01 0.03 0.13 0.19 0.20 0.16 0.10 0.02 0.00 0.00 0.01 0.01 0.00 0.00 0.00 0.00 0.00 0.00 0.00 0.00 0.00 0.00 0.00 0.00 0.00 0.01 0.00 0.01 0.00 0.00 0.00 0.00
0.00 0.00 0.00 0.00 0.00 0.00 0.00 0.01 0.03 0.06 0.19 0.22 0.48 0.67 0.70 0.38 0.23 0.18 0.10 0.05 0.05 0.02 0.01 0.00 0.00 0.00 0.00 0.00 0.00 0.00 0.00 0.00 0.00 0.00 0.00 0.00 0.00 0.01 0.00 0.00 0.00 0.00 0.00
0.00 0.00 0.00 0.00 0.00 0.00 0.00 0.05 0.08 0.03 0.05 0.12 0.34 0.73 0.53 0.45 0.26 0.24 0.28 0.19 0.11 0.03 0.00 0.00 0.00 0.00 0.00 0.00 0.00 0.00 0.00 0.00 0.00 0.00 0.00 0.00 0.00 0.00 0.00 0.00 0.00 0.00 0.00
0.00 0.00 0.00 0.00 0.00 0.00 0.00 0.01 0.06 0.04 0.12 0.16 0.08 0.15 0.23 0.30 0.31 0.28 0.26 0.34 0.24 0.10 0.00 0.00 0.00 0.00 0.00 0.00 0.00 0.00 0.00 0.00 0.00 0.00 0.00 0.00 0.00 0.00 0.00 0.00 0.00 0.00 0.00
0.00 0.00 0.00 0.00 0.00 0.00 0.00 0.00 0.04 0.04 0.05 0.10 0.09 0.03 0.03 0.05 0.06 0.11 0.26 0.33 0.30 0.09 0.00 0.00 0.00 0.00 0.00 0.00 0.00 0.00 0.00 0.00 0.00 0.00 0.00 0.00 0.00 0.00 0.00 0.00 0.00 0.00 0.00
0.00 0.00 0.00 0.00 0.00 0.00 0.00 0.00 0.01 0.04 0.06 0.04 0.05 0.02 0.02 0.00 0.00 0.02 0.11 0.29 0.24 0.08 0.00 0.00 0.00 0.00 0.00 0.00 0.00 0.00 0.00 0.00 0.00 0.00 0.00 0.00 0.00 0.00 0.00 0.01 0.00 0.00 0.00
0.00 0.00 0.00 0.00 0.00 0.00 0.00 0.00 0.01 0.02 0.02 0.02 0.01 0.01 0.01 0.00 0.00 0.01 0.04 0.10 0.11 0.01 0.00 0.00 0.00 0.00 0.00 0.00 0.00 0.00 0.00 0.00 0.00 0.00 0.00 0.00 0.00 0.00 0.01 0.00 0.00 0.00 0.00
0.00 0.00 0.00 0.00 0.00 0.00 0.00 0.00 0.01 0.02 0.01 0.00 0.00 0.00 0.00 0.00 0.00 0.01 0.06 0.07 0.04 0.01 0.00 0.00 0.00 0.00 0.00 0.00 0.00 0.00 0.00 0.00 0.00 0.00 0.00 0.00 0.00 0.00 0.00 0.00 0.00 0.00 0.00
0.00 0.00 0.00 0.00 0.00 0.00 0.00 0.00 0.00 0.00 0.00 0.00 0.00 0.00 0.00 0.00 0.00 0.02 0.03 0.05 0.04 0.01 0.00 0.00 0.00 0.00 0.00 0.00 0.00 0.00 0.00 0.00 0.00 0.00 0.00 0.00 0.00 0.00 0.00 0.00 0.00 0.00 0.00
0.00 0.00 0.00 0.00 0.00 0.00 0.00 0.00 0.00 0.00 0.00 0.00 0.00 0.00 0.00 0.00 0.02 0.01 0.03 0.04 0.03 0.00 0.00 0.00 0.00 0.00 0.00 0.00 0.00 0.00 0.00 0.00 0.00 0.00 0.00 0.00 0.00 0.00 0.00 0.00 0.00 0.00 0.00
0.00 0.00 0.00 0.00 0.00 0.00 0.00 0.00 0.00 0.00 0.00 0.00 0.00 0.00 0.00 0.01 0.06 0.04 0.02 0.03 0.02 0.00 0.00 0.00 0.00 0.00 0.00 0.00 0.00 0.00 0.00 0.00 0.00 0.00 0.00 0.00 0.00 0.00 0.00 0.00 0.00 0.00 0.00
0.00 0.00 0.00 0.00 0.00 0.00 0.00 0.00 0.00 0.00 0.00 0.00 0.00 0.00 0.00 0.04 0.05 0.10 0.06 0.03 0.02 0.00 0.00 0.00 0.00 0.00 0.00 0.00 0.00 0.00 0.00 0.00 0.00 0.00 0.00 0.00 0.00 0.00 0.00 0.00 0.00 0.00 0.00
0.00 0.00 0.00 0.00 0.00 0.00 0.00 0.00 0.00 0.01 0.01 0.00 0.02 0.03 0.08 0.18 0.15 0.16 0.09 0.05 0.02 0.00 0.00 0.00 0.00 0.00 0.00 0.00 0.00 0.00 0.00 0.00 0.00 0.00 0.00 0.00 0.00 0.00 0.00 0.00 0.00 0.00 0.00
0.00 0.00 0.00 0.00 0.00 0.00 0.00 0.00 0.00 0.01 0.01 0.01 0.03 0.10 0.25 0.27 0.28 0.16 0.05 0.03 0.02 0.00 0.00 0.00 0.00 0.00 0.00 0.00 0.00 0.00 0.00 0.00 0.00 0.00 0.00 0.00 0.00 0.00 0.00 0.00 0.00 0.00 0.00
0.00 0.00 0.00 0.00 0.00 0.00 0.00 0.00 0.00 0.00 0.01 0.02 0.03 0.07 0.31 0.48 0.39 0.19 0.05 0.02 0.01 0.00 0.00 0.00 0.00 0.00 0.00 0.00 0.00 0.00 0.00 0.00 0.00 0.00 0.00 0.00 0.00 0.00 0.00 0.00 0.00 0.00 0.00
0.00 0.00 0.00 0.00 0.00 0.00 0.00 0.00 0.00 0.00 0.01 0.03 0.04 0.01 0.09 0.27 0.29 0.18 0.06 0.01 0.00 0.00 0.00 0.00 0.00 0.00 0.00 0.00 0.00 0.00 0.00 0.00 0.00 0.00 0.00 0.00 0.00 0.00 0.00 0.00 0.00 0.00 0.00
0.00 0.00 0.00 0.00 0.00 0.00 0.00 0.00 0.00 0.00 0.00 0.01 0.03 0.01 0.01 0.05 0.09 0.09 0.07 0.01 0.00 0.00 0.00 0.00 0.00 0.00 0.00 0.00 0.00 0.00 0.00 0.00 0.00 0.00 0.00 0.00 0.00 0.00 0.00 0.00 0.00 0.00 0.00
0.00 0.00 0.00 0.00 0.00 0.00 0.00 0.00 0.00 0.00 0.00 0.00 0.01 0.03 0.02 0.03 0.04 0.08 0.09 0.04 0.00 0.00 0.00 0.00 0.00 0.00 0.00 0.00 0.00 0.00 0.00 0.00 0.00 0.00 0.00 0.00 0.00 0.00 0.00 0.00 0.00 0.00 0.00
0.00 0.00 0.00 0.00 0.00 0.00 0.00 0.00 0.00 0.00 0.00 0.00 0.00 0.00 0.01 0.05 0.10 0.06 0.13 0.12 0.04 0.02 0.00 0.00 0.00 0.00 0.00 0.00 0.00 0.00 0.00 0.00 0.00 0.00 0.00 0.00 0.00 0.00 0.00 0.00 0.00 0.00 0.00
MSLP
1007.61 1007.92 1008.33 1008.53 1008.79 1009.09 1009.11 1009.22 1009.43 1009.47 1009.64 1010.06 1010.50 1010.79 1011.12 1011.56 1012.12 1012.61 1012.98 1013.12 1013.17 1013.32 1013.56 1014.07 1014.52 1014.87 1015.20 1015.58 1015.83 1016.14 1016.56 1016.88 1017.11 1017.19 1017.45 1017.57 1018.01 1018.30 1018.57 1018.64 1018.91 1019.09 1019.20
1007.01 1007.45 1008.06 1008.44 1008.67 1009.02 1009.23 1009.40 1009.60 1009.61 1009.79 1010.20 1010.67 1011.12 1011.48 1011.85 1012.40 1012.80 1013.10 1013.29 1013.31 1013.54 1013.77 1014.18 1014.70 1015.10 1015.52 1015.90 1016.24 1016.57 1017.01 1017.25 1017.38 1017.53 1017.83 1018.04 1018.35 1018.72 1019.00 1019.24 1019.38 1019.55 1019.69
1007.22 1007.54 1007.96 1008.57 1008.89 1009.11 1009.29 1009.56 1009.77 1009.83 1009.83 1010.13 1010.60 1011.10 1011.59 1012.09 1012.52 1013.01 1013.24 1013.43 1013.55 1013.77 1014.05 1014.39 1014.77 1015.29 1015.92 1016.34 1016.58 1016.96 1017.27 1017.61 1017.71 1018.04 1018.35 1018.65 1018.94 1019.22 1019.53 1019.84 1019.89 1020.01 1020.24
1006.96 1007.44 1007.89 1008.38 1008.88 1009.20 1009.43 1009.54 1009.86 1010.03 1010.02 1010.08 1010.33 1010.86 1011.43 1012.10 1012.54 1013.10 1013.41 1013.85 1013.92 1014.07 1014.33 1014.63 1014.96 1015.47 1016.09 1016.48 1016.87 1017.30 1017.61 1017.97 1018.21 1018.39 1018.88 1019.17 1019.44 1019.70 1019.88 1020.18 1020.40 1020.47 1020.69
1007.13 1007.32 1007.79 1008.38 1008.87 1009.16 1009.55 1009.83 1010.10 1010.29 1010.42 1010.43 1010.66 1011.14 1011.57 1011.70 1012.39 1012.81 1013.32 1013.76 1014.00 1014.21 1014.52 1014.86 1015.32 1015.77 1016.24 1016.67 1017.11 1017.59 1017.94 1018.22 1018.67 1019.00 1019.31 1019.70 1019.99 1020.07 1020.30 1020.64 1020.91 1021.19 1021.30
1007.35 1007.46 1007.82 1008.24 1008.91 1009.14 1009.44 1009.73 1010.15 1010.42 1010.65 1010.73 1010.82 1010.78 1011.79 1011.68 1012.20 1012.81 1013.34 1013.64 1014.08 1014.44 1014.65 1015.04 1015.70 1016.27 1016.69 1016.88 1017.36 1017.88 1018.25 1018.61 1019.06 1019.55 1019.82 1020.07 1020.33 1020.56 1020.77 1021.22 1021.54 1021.72 1021.74
1007.40 1007.56 1007.82 1008.16 1008.81 1009.14 1009.36 1009.65 1009.97 1010.47 1010.73 1010.99 1011.16 1011.30 1011.92 1011.87 1012.55 1012.82 1013.36 1013.77 1014.06 1014.48 1014.90 1015.47 1015.97 1016.67 1017.09 1017.37 1017.69 1018.09 1018.48 1018.93 1019.46 1019.85 1020.21 1020.37 1020.55 1020.82 1021.52 1022.01 1022.18 1022.46 1022.59
1007.31 1007.77 1007.99 1008.23 1008.71 1009.03 1009.29 1009.46 1009.75 1010.22 1010.58 1010.96 1011.36 1011.81 1012.20 1012.68 1012.48 1014.17 1013.79 1014.04 1014.33 1014.58 1015.10 1015.72 1016.31 1016.82 1017.40 1017.87 1018.12 1018.43 1018.78 1019.06 1019.69 1020.01 1020.35 1020.59 1021.04 1021.53 1021.99 1022.37 1022.65 1022.86 1023.19
1007.40 1007.79 1008.05 1008.30 1008.66 1008.98 1009.40 1009.42 1009.62 1010.03 1010.45 1011.03 1011.43 1012.26 1013.39 1013.44 1013.06 1015.02 1014.75 1013.98 1014.67 1015.10 1015.42 1015.87 1016.61 1017.14 1017.64 1018.12 1018.43 1018.82 1019.27 1019.54 1019.75 1020.09 1020.37 1021.07 1021.40 1021.89 1022.25 1022.74 1022.97 1023.16 1023.50
1007.56 1007.74 1008.07 1008.32 1008.46 1008.77 1009.26 1009.52 1009.81 1010.14 1010.59 1011.36 1012.03 1012.74 1013.25 1013.24 1014.93 1014.99 1014.86 1014.67 1014.73 1015.60 1015.75 1015.90 1016.73 1017.39 1017.85 1018.42 1018.75 1019.18 1019.54 1019.75 1020.07 1020.29 1020.94 1021.23 1021.55 1022.05 1022.62 1022.94 1023.21 1023.63 1023.86
1007.67 1007.82 1008.07 1008.52 1008.51 1008.79 1009.18 1009.38 1009.63 1010.17 1010.64 1011.12 1011.89 1012.37 1012.47 1012.68 1015.11 1015.20 1015.24 1014.88 1014.66 1015.53 1016.16 1016.32 1017.03 1017.64 1018.17 1018.67 1019.19 1019.54 1019.75 1020.24 1020.38 1020.73 1021.12 1021.47 1021.87 1022.28 1022.99 1023.32 1023.59 1023.85 1023.99
1007.63 1007.85 1008.01 1008.44 1008.69 1009.11 1009.27 1009.34 1009.35 1009.86 1010.62 1011.19 1011.81 1012.44 1012.37 1012.45 1013.09 1013.81 1014.85 1014.97 1015.20 1015.36 1016.24 1016.56 1017.23 1018.03 1018.53 1019.10 1019.62 1019.98 1020.37 1020.57 1021.02 1021.19 1021.54 1021.78 1022.22 1022.51 1023.24 1023.60 1023.82 1024.00 1024.25
1007.24 1007.77 1007.88 1008.30 1008.77 1009.16 1009.37 1009.38 1009.39 1009.90 1010.68 1011.24 1011.77 1012.26 1012.61 1012.57 1012.96 1013.80 1014.74 1014.89 1015.55 1015.70 1016.42 1017.01 1017.57 1018.26 1018.91 1019.25 1020.01 1020.45 1020.75 1021.06 1021.40 1021.71 1021.80 1021.93 1022.42 1022.69 1023.41 1023.93 1024.11 1024.33 1024.50
1006.95 1007.40 1007.77 1008.19 1008.69 1008.97 1009.22 1009.38 1009.46 1009.89 1010.55 1011.16 1011.46 1012.08 1012.47 1012.68 1013.20 1013.92 1014.43 1014.97 1015.63 1015.89 1016.57 1017.28 1017.66 1018.50 1019.12 1019.51 1020.00 1020.53 1020.98 1021.39 1021.76 1021.93 1022.01 1022.16 1022.56 1023.19 1023.72 1024.03 1024.26 1024.62 1024.77
1006.62 1006.95 1007.69 1008.06 1008.49 1008.78 1009.25 1009.41 1009.63 1009.87 1010.34 1010.77 1011.29 1011.69 1012.13 1012.48 1012.94 1013.56 1014.20 1014.90 1015.24 1015.97 1016.52 1017.46 1017.92 1018.49 1019.55 1019.79 1020.29 1020.51 1020.98 1021.57 1021.91 1022.18 1022.20 1022.24 1022.89 1023.44 1023.70 1024.07 1024.39 1024.59 1024.82
1006.11 1006.51 1007.28 1007.80 1008.18 1008.71 1009.15 1009.31 1009.65 1009.85 1010.18 1010.67 1011.07 1011.37 1012.00 1012.29 1012.80 1013.39 1014.06 1014.55 1015.24 1015.85 1016.50 1017.24 1018.10 1018.57 1019.28 1019.94 1020.28 1020.63 1021.02 1021.49 1021.91 1022.24 1022.46 1022.61 1022.89 1023.34 1023.76 1024.07 1024.42 1024.68 1024.92
1005.62 1006.21 1006.88 1007.50 1007.96 1008.65 1009.01 1009.21 1009.70 1009.95 1010.21 1010.66 1010.87 1011.21 1011.80 1012.11 1012.67 1012.88 1013.60 1014.47 1014.99 1015.79 1016.42 1017.40 1018.30 1018.69 1019.26 1019.96 1020.40 1020.64 1021.15 1021.60 1021.97 1022.42 1022.82 1022.88 1023.17 1023.40 1023.72 1024.18 1024.53 1024.89 1025.00
1005.26 1005.80 1006.67 1007.19 1007.89 1008.46 1008.81 1009.14 1009.66 1010.01 1010.33 1010.75 1010.94 1011.03 1011.44 1011.84 1012.06 1012.64 1013.41 1014.17 1014.78 1015.61 1016.33 1017.40 1018.27 1018.92 1019.51 1019.97 1020.63 1020.98 1021.18 1021.70 1022.06 1022.61 1022.91 1023.13 1023.43 1023.75 1023.76 1024.27 1024.59 1024.91 1025.06
1004.75 1005.60 1006.46 1006.95 1007.62 1008.34 1008.78 1009.07 1009.51 1009.84 1010.13 1010.25 1010.77 1010.97 1011.08 1011.40 1011.67 1012.08 1012.96 1013.83 1014.78 1015.35 1016.28 1017.32 1018.13 1018.59 1019.42 1020.24 1020.72 1021.09 1021.37 1021.89 1022.04 1022.49 1022.98 1023.27 1023.48 1023.77 1023.97 1024.10 1024.54 1024.87 1024.96
1004.65 1005.53 1006.13 1006.80 1007.49 1008.28 1008.79 1009.08 1009.45 1009.73 1009.86 1009.87 1010.11 1010.26 1010.48 1010.75 1011.05 1011.37 1012.20 1013.54 1014.68 1015.19 1016.36 1017.31 1018.07 1018.72 1019.33 1020.03 1020.73 1021.49 1021.81 1022.17 1022.13 1022.45 1022.81 1023.34 1023.60 1023.82 1024.04 1024.28 1024.50 1024.79 1025.08
1004.58 1005.44 1005.93 1006.58 1007.28 1008.00 1008.58 1008.84 1009.22 1009.50 1009.59 1009.68 1009.62 1009.25 1009.63 1010.10 1010.60 1011.19 1012.28 1013.44 1014.55 1015.03 1016.05 1017.10 1018.04 1018.86 1019.74 1020.17 1020.93 1022.08 1022.43 1022.59 1022.61 1022.97 1023.02 1023.12 1023.49 1023.67 1023.93 1024.29 1024.56 1024.80 1025.05
1004.14 1005.10 1005.80 1006.23 1006.93 1007.58 1007.97 1008.33 1008.72 1009.11 1009.40 1009.44 1009.20 1009.33 1009.34 1009.65 1010.43 1011.08 1012.22 1013.30 1014.42 1015.16 1016.24 1017.08 1017.52 1018.78 1019.55 1019.71 1020.48 1021.47 1022.50 1023.07 1022.86 1022.94 1023.07 1023.04 1023.27 1023.44 1023.57 1023.77 1024.03 1024.42 1024.74
1003.57 1004.46 1005.23 1005.87 1006.52 1007.28 1007.58 1008.21 1008.73 1009.02 1009.26 1009.37 1009.38 1009.67 1009.81 1009.92 1010.23 1010.94 1012.12 1013.23 1014.23 1014.97 1015.76 1016.63 1017.41 1017.91 1018.86 1019.66 1019.71 1020.01 1021.48 1021.96 1022.46 1022.66 1022.76 1022.95 1023.06 1023.26 1023.27 1023.31 1023.62 1023.85 1024.15
1002.80 1004.02 1004.90 1005.63 1006.34 1006.89 1007.38 1007.89 1008.33 1008.80 1009.08 1009.25 1009.32 1009.61 1009.98 1010.17 1010.67 1011.16 1011.99 1013.20 1014.00 1014.57 1015.58 1016.52 1017.08 1017.44 1017.86 1018.84 1019.58 1019.60 1019.51 1020.22 1021.51 1022.42 1022.63 1022.57 1022.87 1023.02 1022.95 1022.77 1022.91 1023.09 1023.38
1002.53 1003.47 1004.43 1005.38 1006.15 1006.67 1007.23 1007.58 1008.02 1008.63 1008.96 1009.21 1009.62 1009.92 1010.18 1010.61 1011.06 1011.54 1012.34 1013.00 1013.88 1014.49 1015.37 1016.06 1016.74 1017.09 1017.44 1018.12 1018.69 1019.43 1019.71 1020.13 1020.28 1020.96 1021.85 1022.08 1022.40 1022.28 1022.30 1022.18 1022.35 1022.52 1022.64
1002.59 1003.43 1004.04 1004.99 1005.78 1006.40 1007.03 1007.39 1007.98 1008.49 1008.98 1009.33 1009.80 1010.20 1010.39 1010.79 1011.11 1011.63 1012.21 1013.01 1013.69 1014.22 1015.08 1015.66 1016.32 1016.74 1017.19 1017.51 1018.26 1018.75 1019.09 1019.60 1019.93 1020.17 1020.81 1021.16 1021.30 1021.34 1021.37 1021.54 1021.77 1021.81 1021.73
Thickness
5742 5738 5735 5733 5730 5726 5725 5724 5722 5722 5721 5717 5714 5710 5709 5707 5704 5701 5699 5700 5703 5705 5706 5704 5702 5701 5701 5699 5700 5700 5699 5698 5698 5699 5698 5698 5695 5693 5692 5692 5690 5688 5686
5743 5739 5733 5730 5727 5723 5720 5719 5717 5716 5714 5711 5708 5704 5700 5698 5695 5694 5693 5693 5695 5697 5699 5699 5697 5696 5695 5694 5694 5694 5693 5693 5694 5694 5692 5692 5690 5688 5686 5685 5684 5682 5680
5737 5734 5729 5723 5720 5718 5715 5713 5711 5710 5709 5706 5702 5699 5696 5692 5689 5687 5686 5687 5689 5691 5692 5693 5693 5692 5689 5689 5690 5689 5689 5688 5689 5687 5686 5685 5683 5682 5681 5678 5678 5677 5674
5737 5732 5726 5719 5714 5712 5709 5708 5706 5703 5702 5701 5699 5695 5692 5688 5686 5682 5680 5680 5682 5684 5685 5686 5688 5688 5687 5686 5685 5684 5683 5682 5682 5683 5680 5679 5677 5677 5675 5673 5672 5671 5669
5730 5727 5721 5714 5709 5707 5704 5701 5698 5696 5694 5693 5692 5688 5686 5687 5682 5681 5677 5675 5676 5678 5679 5680 5681 5682 5683 5683 5681 5678 5677 5678 5677 5678 5676 5673 5671 5671 5670 5667 5666 5663 5663
5725 5722 5716 5711 5703 5702 5700 5697 5692 5688 5687 5686 5686 5687 5679 5681 5678 5675 5672 5672 5671 5671 5673 5675 5674 5674 5675 5677 5676 5674 5674 5674 5673 5670 5669 5668 5666 5666 5664 5661 5659 5658 5658
5719 5715 5711 5708 5700 5697 5694 5692 5688 5682 5679 5678 5678 5677 5672 5674 5670 5669 5668 5666 5666 5666 5667 5669 5670 5668 5668 5669 5670 5671 5671 5669 5667 5666 5664 5663 5663 5661 5656 5653 5652 5650 5650
5714 5708 5705 5703 5697 5693 5689 5687 5683 5679 5675 5673 5669 5666 5661 5657 5661 5647 5657 5659 5659 5661 5663 5666 5666 5664 5662 5661 5663 5665 5666 5666 5663 5662 5660 5659 5657 5653 5649 5647 5645 5646 5644
5710 5705 5701 5698 5694 5689 5683 5683 5680 5675 5671 5666 5664 5656 5637 5641 5653 5638 5642 5654 5651 5652 5657 5660 5659 5657 5655 5655 5658 5659 5659 5658 5659 5657 5656 5653 5650 5646 5644 5642 5641 5641 5639
5703 5700 5697 5694 5691 5686 5680 5676 5672 5669 5664 5660 5654 5649 5649 5645 5633 5637 5641 5643 5645 5644 5649 5654 5651 5649 5649 5649 5651 5652 5652 5654 5653 5652 5648 5648 5646 5642 5638 5637 5637 5635 5636
5696 5694 5691 5686 5687 5683 5677 5672 5668 5663 5659 5655 5650 5647 5646 5647 5626 5632 5636 5640 5643 5639 5642 5647 5644 5642 5642 5644 5644 5645 5646 5645 5646 5644 5644 5642 5640 5638 5633 5632 5632 5631 5631
5690 5687 5687 5683 5681 5674 5670 5667 5665 5659 5651 5648 5646 5642 5643 5642 5642 5639 5634 5637 5637 5640 5638 5639 5637 5635 5637 5637 5637 5637 5637 5639 5638 5638 5639 5637 5634 5633 5628 5628 5627 5627 5626
5688 5683 5682 5680 5674 5669 5664 5661 5660 5653 5645 5642 5639 5638 5636 5639 5637 5632 5629 5634 5630 5634 5634 5633 5632 5631 5630 5631 5630 5630 5631 5631 5630 5631 5632 5632 5630 5628 5624 5622 5622 5621 5621
5685 5682 5679 5676 5670 5666 5661 5659 5656 5650 5642 5637 5637 5633 5632 5632 5629 5627 5627 5628 5628 5632 5631 5628 5628 5624 5623 5626 5627 5626 5625 5625 5625 5627 5627 5627 5626 5622 5619 5618 5618 5616 5616
5684 5680 5675 5672 5668 5664 5657 5654 5651 5648 5642 5638 5635 5633 5630 5629 5628 5625 5624 5623 5626 5627 5628 5623 5622 5621 5616 5618 5619 5620 5620 5618 5618 5620 5622 5623 5620 5617 5616 5614 5613 5612 5612
5683 5678 5673 5669 5666 5660 5654 5651 5648 5644 5640 5635 5633 5632 5627 5625 5622 5621 5621 5619 5621 5623 5622 5620 5616 5615 5611 5610 5613 5615 5615 5615 5616 5616 5616 5617 5616 5613 5612 5610 5608 5607 5605
5682 5676 5672 5667 5664 5656 5652 5649 5643 5640 5636 5633 5630 5627 5623 5621 5617 5618 5618 5615 5618 5617 5618 5613 5611 5609 5606 5604 5608 5610 5610 5610 5611 5610 5610 5612 5610 5608 5608 5605 5603 5601 5600
5679 5674 5669 5665 5660 5653 5649 5646 5640 5635 5631 5626 5625 5623 5619 5615 5615 5612 5612 5613 5614 5613 5613 5610 5607 5604 5602 5601 5601 5604 5605 5605 5606 5605 5604 5605 5604 5602 5603 5601 5599 5597 5596
5680 5672 5664 5662 5657 5650 5645 5642 5637 5633 5629 5624 5620 5619 5615 5611 5611 5612 5611 5611 5608 5610 5610 5607 5604 5604 5600 5598 5597 5599 5600 5599 5601 5600 5598 5599 5599 5597 5597 5596 5594 5592 5592
5677 5669 5662 5658 5653 5646 5641 5638 5633 5630 5627 5625 5620 5617 5615 5612 5613 5614 5614 5609 5603 5607 5604 5602 5599 5598 5597 5593 5593 5590 5589 5592 5596 5596 5595 5592 5592 5592 5590 5589 5589 5587 5585
5674 5665 5658 5656 5651 5644 5639 5636 5632 5627 5623 5621 5619 5620 5615 5614 5613 5612 5613 5607 5601 5605 5602 5598 5594 5593 5588 5588 5586 5580 5582 5584 5588 5587 5588 5590 5588 5587 5586 5584 5582 5581 5580
5673 5663 5655 5654 5650 5644 5640 5637 5632 5626 5619 5616 5618 5615 5613 5612 5610 5610 5606 5604 5602 5599 5595 5592 5596 5589 5587 5589 5585 5579 5578 5575 5579 5581 5581 5582 5582 5581 5581 5581 5580 5577 5575
5672 5662 5657 5653 5649 5643 5642 5636 5627 5622 5616 5612 5611 5608 5608 5606 5607 5607 5603 5601 5600 5599 5595 5592 5591 5591 5588 5585 5588 5587 5576 5578 5576 5577 5577 5575 5576 5576 5576 5577 5575 5573 5571
5673 5661 5656 5651 5646 5643 5641 5635 5628 5622 5616 5611 5609 5608 5608 5607 5607 5608 5606 5600 5598 5596 5592 5588 5588 5590 5591 5588 5582 5586 5589 5586 5576 5572 5570 5572 5570 5569 5569 5571 5570 5569 5568
5669 5661 5656 5649 5644 5642 5639 5635 5628 5621 5616 5611 5609 5609 5607 5606 5604 5604 5599 5598 5596 5594 5590 5588 5585 5588 5589 5587 5584 5579 5580 5579 5579 5576 5570 5568 5566 5566 5563 5565 5564 5563 5563
5663 5658 5655 5650 5645 5642 5637 5634 5626 5621 5616 5610 5607 5607 5607 5605 5603 5601 5599 5597 5593 5593 5590 5588 5584 5584 5583 5585 5581 5579 5578 5575 5575 5573 5570 5567 5568 5564 5563 5561 5560 5561 5561